Weather in Raymah

Yemen     14°39′37″N   43°40′13″E
temp.,
°C
wind,
m/s
gust,
m/s
humid.,
%
clouds,
%
prec.,
mm/h
press.,
hPa
HPBL,
m
24 may, tue
tue2400:00+26ne11440 0.0 100911
03:00+24ne11452 0.0 100811
06:00+24ese223876 0.0 100911
09:00+30n132022 0.0 10091394
12:00+32wnw562637 0.0 10072372
15:00+30wnw543820 0.0 10071645
18:00+27wnw435363 0.4 1009806
21:00+26n01585 0.4 1011297
25 may, wed
wed2500:00+25ssw01580 0.0 101030
03:00+24ene11625 0.0 100911
06:00+24e22617 0.0 101118
09:00+30n15225 0.0 10111689
12:00+33wnw36225 0.0 10092877
15:00+31wnw543793 0.0 10081344
18:00+28wnw434972 0.0 1009807
21:00+26wsw116020 0.0 1012335
26 may, thu
thu2600:00+25e11625 0.0 101275
03:00+25e226189 0.0 101121
06:00+25e223962 0.0 101216
09:00+30ene241116 0.0 10121460
12:00+33wnw46185 0.0 10103027
15:00+31wnw54370 0.0 10091570
18:00+27wnw44601 0.2 1009714
21:00+25w21670 2.1 1012221
27 may, fri
fri2700:00+25wsw11630 0.2 1011110
03:00+24ese01660 0.3 101019
06:00+24ese11640 0.0 101123
09:00+28wnw11380 0.0 10121273
12:00+31w543367 0.0 10092675
15:00+30w543615 0.0 10081920
18:00+25nw3557100 3.3 1011890
21:00+24se5550100 7.4 1013345
28 may, sat
sat2800:00+23ese445097 0.1 1012172
03:00+23ese33473 0.1 101041
06:00+24e22445 0.0 101121
09:00+29nne11262 0.0 1011892
12:00+32wnw552430 0.0 10092660
15:00+31w642856 0.0 10082235
18:00+29w443219 0.0 10101550
21:00+27wsw11365 0.0 1012265